Weather History for Rome, NY

Change the Weather History Date:

Tuesday, April 2, 2013

  Actual Average Record
Temperature  
Mean Temperature 26 °F -  
Max Temperature 30 °F 47 °F 64 °F (2009)
Min Temperature 21 °F 32 °F 21 °F (2013)
Degree Days  
Heating Degree Days 40    
Moisture  
Dew Point 22 °F    
Average Humidity 85    
Maximum Humidity 100    
Minimum Humidity 52    
Precipitation  
Precipitation 0.03 in - - ()
Sea Level Pressure  
Sea Level Pressure 29.96 in    
Wind  
Wind Speed 13 mph (West)    
Max Wind Speed 30 mph    
Max Gust Speed 37 mph    
Visibility 4 miles    
Events Fog , Snow    
Averages and records for this station are not official NWS values.
T = Trace of Precipitation, MM = Missing Value Source: NWS Daily Summary

Daily Weather History Graph

Daily Weather History Graph

Search for Another Location

Airport:

Trip Planner

Search our weather history database for the weather conditions in past years. The results will help you decide how hot, cold, wet, or windy it might be!

Date:

Astronomy

Apr. 02, 2013 Rise Set
Actual Time 6:41 AM EDT 7:29 PM EDT
Civil Twilight 6:12 AM EDT 7:58 PM EDT
Nautical Twilight 5:38 AM EDT 8:32 PM EDT
Astronomical Twilight 5:02 AM EDT 9:08 PM EDT
Moon 1:38 AM EDT (4/2) 11:23 AM EDT (4/2)
Length of Visible Light 13h 45m
Length of Day
12h 48m
Waning Gibbous, 56% of the Moon is Illuminated
Apr 2
Waning Gibbous
Apr 3
Last Quarter
Apr 10
New
Apr 18
First Quarter
Apr 25
Full

Hourly Weather History & Observations

Time (EDT) Temp. Windchill Dew Point Humidity Pressure Visibility Wind Dir Wind Speed Gust Speed Precip Events Conditions
12:02 AM 27.0 °F 16.1 °F 21.9 °F 81% 29.90 in 1.8 mi West 12.7 mph - 0.00 in Snow Light Snow
12:17 AM 26.1 °F 15.6 °F 24.1 °F 92% 29.90 in 2.5 mi West 11.5 mph - 0.00 in Snow Light Snow
12:38 AM 26.1 °F 16.8 °F 24.1 °F 92% 29.89 in 1.2 mi West 9.2 mph - 0.00 in Snow Light Snow
12:49 AM 26.6 °F 16.8 °F 24.8 °F 93% 29.90 in 3.0 mi West 10.4 mph - 0.00 in Snow Light Snow
12:53 AM 26.1 °F 16.2 °F 24.1 °F 92% 29.91 in 5.0 mi West 10.4 mph - 0.00 in Snow Light Snow
1:37 AM 26.1 °F 16.8 °F 24.1 °F 92% 29.90 in 2.5 mi West 9.2 mph - 0.00 in Snow Light Snow
1:40 AM 26.1 °F 15.6 °F 24.1 °F 92% 29.90 in 2.5 mi West 11.5 mph - 0.00 in Snow Light Snow
1:49 AM 26.6 °F 16.2 °F 24.8 °F 93% 29.90 in 1.2 mi West 11.5 mph - 0.00 in Snow Light Snow
1:53 AM 26.1 °F 16.2 °F 24.1 °F 92% 29.91 in 1.5 mi West 10.4 mph - 0.00 in Snow Light Snow
2:00 AM 26.1 °F 16.8 °F 24.1 °F 92% 29.90 in 3.0 mi West 9.2 mph - 0.00 in Snow Light Snow
2:07 AM 26.1 °F 16.2 °F 24.1 °F 92% 29.89 in 2.0 mi West 10.4 mph - 0.00 in Snow Light Snow
2:14 AM 26.1 °F 15.0 °F 23.0 °F 88% 29.90 in 5.0 mi West 12.7 mph 19.6 mph 0.00 in Snow Light Snow
2:24 AM 26.1 °F 16.2 °F 24.1 °F 92% 29.89 in 2.5 mi West 10.4 mph - 0.00 in Snow Light Snow
2:35 AM 26.1 °F 15.6 °F 24.1 °F 92% 29.89 in 1.2 mi West 11.5 mph - 0.00 in Snow Light Snow
2:47 AM 26.6 °F 15.2 °F 24.8 °F 93% 29.89 in 1.0 mi West 13.8 mph - 0.00 in Snow Light Snow
3:53 AM 24.1 °F 14.4 °F 21.9 °F 91% 29.91 in 8.0 mi NW 9.2 mph - 0.00 in Snow Light Snow
4:04 AM 24.1 °F 13.7 °F 21.9 °F 91% 29.89 in 8.0 mi NNW 10.4 mph - 0.00 in Snow Light Snow
4:11 AM 23.0 °F 13.1 °F 21.0 °F 92% 29.89 in 6.0 mi NW 9.2 mph - 0.00 in Snow Light Snow
4:28 AM 21.0 °F 14.6 °F 21.0 °F 100% 29.89 in 10.0 mi NW 4.6 mph - 0.00 in   Mostly Cloudy
4:37 AM 23.0 °F 15.8 °F 21.9 °F 96% 29.89 in 10.0 mi NW 5.8 mph - 0.00 in   Mostly Cloudy
4:46 AM 23.0 °F 17.0 °F 21.9 °F 96% 29.89 in 10.0 mi NW 4.6 mph - 0.00 in   Overcast
4:53 AM 23.0 °F 15.8 °F 21.9 °F 96% 29.91 in 10.0 mi WNW 5.8 mph - 0.00 in   Overcast
5:00 AM 24.1 °F 17.0 °F 21.9 °F 91% 29.90 in 2.5 mi West 5.8 mph - 0.00 in Snow Light Snow
5:06 AM 24.1 °F 13.1 °F 21.9 °F 91% 29.90 in 1.2 mi West 11.5 mph - 0.01 in Snow Light Snow
5:13 AM 24.1 °F 13.1 °F 21.0 °F 88% 29.90 in 3.0 mi West 11.5 mph - 0.01 in Snow Light Snow
5:21 AM 23.0 °F 13.9 °F 19.9 °F 88% 29.90 in 9.0 mi West 8.1 mph - 0.01 in   Overcast
5:29 AM 23.0 °F 14.7 °F 19.9 °F 88% 29.90 in 10.0 mi West 6.9 mph - 0.01 in   Mostly Cloudy
5:53 AM 24.1 °F 15.2 °F 19.9 °F 84% 29.92 in 10.0 mi West 8.1 mph - 0.01 in Snow Light Snow
6:09 AM 24.1 °F 12.5 °F 19.9 °F 84% 29.91 in 2.5 mi West 12.7 mph - 0.00 in Snow Light Snow
6:22 AM 23.0 °F 12.4 °F 19.9 °F 88% 29.91 in 6.0 mi West 10.4 mph - 0.00 in Snow Light Snow
6:29 AM 24.1 °F 13.7 °F 19.9 °F 84% 29.91 in 9.0 mi West 10.4 mph - 0.00 in   Mostly Cloudy
6:39 AM 24.1 °F 13.7 °F 21.0 °F 88% 29.91 in 2.5 mi West 10.4 mph - 0.00 in Snow Light Snow
6:53 AM 24.1 °F 13.1 °F 21.0 °F 88% 29.93 in 3.0 mi West 11.5 mph - 0.00 in Snow Light Snow
6:56 AM 24.1 °F 12.5 °F 21.0 °F 88% 29.92 in 1.8 mi West 12.7 mph - 0.00 in Snow Light Snow
7:27 AM 24.1 °F 12.0 °F 21.9 °F 91% 29.93 in 0.8 mi West 13.8 mph - 0.00 in Snow Light Snow
7:42 AM 23.0 °F 10.6 °F 21.0 °F 92% 29.93 in 2.0 mi West 13.8 mph - 0.00 in Snow Light Snow
7:46 AM 24.1 °F 13.1 °F 21.0 °F 88% 29.93 in 5.0 mi West 11.5 mph - 0.00 in Snow Light Snow
7:53 AM 24.1 °F 15.2 °F 21.9 °F 91% 29.94 in 3.0 mi West 8.1 mph - 0.00 in Snow Light Snow
8:00 AM 24.1 °F 14.4 °F 21.9 °F 91% 29.93 in 2.5 mi West 9.2 mph - 0.00 in Snow Light Snow
8:22 AM 24.1 °F 13.1 °F 21.9 °F 91% 29.94 in 2.5 mi WSW 11.5 mph - 0.00 in Snow Light Snow
8:53 AM 24.1 °F 12.0 °F 21.0 °F 88% 29.96 in 2.5 mi West 13.8 mph - 0.00 in Snow Light Snow
9:00 AM 24.1 °F 10.6 °F 21.0 °F 88% 29.94 in 0.8 mi West 17.3 mph 28.8 mph 0.00 in Snow Light Snow
9:07 AM 24.1 °F 12.0 °F 21.9 °F 91% 29.95 in 0.5 mi West 13.8 mph 28.8 mph 0.00 in Fog , Snow Snow
9:14 AM 24.1 °F 12.0 °F 21.9 °F 91% 29.95 in 0.2 mi West 13.8 mph - 0.00 in Fog , Snow Heavy Snow
9:53 AM 24.1 °F 12.5 °F 21.9 °F 91% 29.97 in 0.5 mi West 12.7 mph - 0.01 in Fog , Snow Snow
10:02 AM 24.1 °F 11.5 °F 21.9 °F 91% 29.96 in 0.8 mi West 15.0 mph - 0.00 in Snow Light Snow
10:35 AM 25.0 °F 12.6 °F 21.0 °F 85% 29.96 in 1.8 mi West 15.0 mph 28.8 mph 0.00 in Snow Light Snow
10:43 AM 24.1 °F 9.4 °F 19.9 °F 84% 29.97 in 0.5 mi West 20.7 mph 28.8 mph 0.00 in Fog , Snow Light Snow
10:46 AM 23.0 °F 8.0 °F 19.9 °F 88% 29.97 in 0.2 mi West 20.7 mph 28.8 mph 0.00 in Fog , Snow Heavy Snow
10:53 AM 23.0 °F 9.2 °F 21.0 °F 92% 29.98 in 0.2 mi West 17.3 mph 27.6 mph 0.00 in Fog , Snow Snow
11:00 AM 25.0 °F 12.2 °F 21.9 °F 88% 29.96 in 1.0 mi WNW 16.1 mph 23.0 mph 0.00 in Snow Light Snow
11:05 AM 25.0 °F 10.6 °F 21.0 °F 85% 29.96 in 3.0 mi West 20.7 mph 25.3 mph 0.00 in Snow Light Snow
11:10 AM 25.0 °F 12.2 °F 19.9 °F 81% 29.97 in 2.5 mi West 16.1 mph 25.3 mph 0.00 in   Overcast
11:20 AM 25.0 °F 10.2 °F 19.9 °F 81% 29.97 in 2.5 mi WNW 21.9 mph 29.9 mph 0.00 in Snow Light Snow
11:53 AM 26.1 °F 11.0 °F 18.0 °F 71% 29.98 in 2.5 mi West 24.2 mph 29.9 mph 0.00 in Snow Light Snow
12:07 PM 26.1 °F 14.0 °F 18.0 °F 71% 29.97 in 2.5 mi West 15.0 mph 27.6 mph 0.00 in Snow Light Snow
12:14 PM 25.0 °F 10.2 °F 19.0 °F 78% 29.97 in 2.5 mi WNW 21.9 mph 29.9 mph 0.00 in Snow Light Snow
12:21 PM 27.0 °F 14.7 °F 19.0 °F 72% 29.96 in 1.2 mi West 16.1 mph - 0.00 in Snow Light Snow
12:23 PM 27.0 °F 13.9 °F 19.0 °F 72% 29.97 in 3.0 mi WNW 18.4 mph - 0.00 in Snow Light Snow
12:33 PM 25.0 °F 8.1 °F 18.0 °F 75% 29.97 in 0.8 mi WNW 29.9 mph 35.7 mph 0.00 in Snow Light Snow
12:41 PM 24.1 °F 11.0 °F 21.9 °F 91% 29.98 in 0.2 mi WNW 16.1 mph 31.1 mph 0.00 in Fog , Snow Snow
12:49 PM 24.8 °F 12.9 °F 21.2 °F 86% 29.97 in 0.8 mi WNW 13.8 mph - 0.00 in Snow Light Snow
12:55 PM 24.1 °F 9.4 °F 21.9 °F 91% 29.97 in 0.2 mi West 20.7 mph - 0.00 in Fog , Snow Heavy Snow
1:10 PM 27.0 °F 11.9 °F 21.0 °F 78% 29.96 in 1.0 mi West 25.3 mph 33.4 mph 0.00 in Snow Light Snow
1:15 PM 27.0 °F 12.8 °F 21.0 °F 78% 29.96 in 2.5 mi WNW 21.9 mph 33.4 mph 0.00 in Snow Light Snow
1:28 PM 27.0 °F 13.5 °F 23.0 °F 85% 29.96 in 1.0 mi West 19.6 mph 36.8 mph 0.00 in Snow Light Snow
1:36 PM 27.0 °F 15.6 °F 21.9 °F 81% 29.96 in 3.0 mi West 13.8 mph 24.2 mph 0.00 in Snow Light Snow
1:42 PM 27.0 °F 13.5 °F 21.0 °F 78% 29.96 in 2.5 mi WNW 19.6 mph 25.3 mph 0.00 in Snow Light Snow
1:53 PM 27.0 °F 14.7 °F 19.9 °F 75% 29.98 in 3.0 mi West 16.1 mph 29.9 mph 0.00 in Snow Light Snow
2:00 PM 27.0 °F 14.3 °F 24.1 °F 89% 29.96 in 2.5 mi WSW 17.3 mph 25.3 mph 0.00 in Snow Light Snow
2:26 PM 27.0 °F 12.8 °F 21.9 °F 81% 29.97 in 1.0 mi West 21.9 mph 29.9 mph 0.00 in Snow Light Snow
2:42 PM 28.0 °F 15.7 °F 23.0 °F 81% 29.97 in 3.0 mi West 17.3 mph 25.3 mph 0.01 in Snow Light Snow
2:53 PM 28.9 °F 15.1 °F 21.0 °F 72% 29.98 in 9.0 mi West 23.0 mph 26.5 mph 0.01 in   Mostly Cloudy
3:00 PM 28.9 °F 14.5 °F 21.0 °F 72% 29.96 in 4.0 mi West 25.3 mph 33.4 mph 0.00 in Snow Light Snow
3:10 PM 28.9 °F 15.4 °F 19.0 °F 67% 29.96 in 9.0 mi West 21.9 mph 34.5 mph 0.00 in   Mostly Cloudy
3:24 PM 28.0 °F 14.3 °F 21.0 °F 75% 29.96 in 2.0 mi WNW 21.9 mph 26.5 mph 0.00 in Snow Light Snow
3:31 PM 28.9 °F 16.5 °F 21.0 °F 72% 29.96 in 1.8 mi West 18.4 mph 26.5 mph 0.00 in Snow Light Snow
3:34 PM 28.9 °F 16.1 °F 21.0 °F 72% 29.96 in 3.0 mi West 19.6 mph 27.6 mph 0.00 in Snow Light Snow
3:53 PM 28.9 °F 15.1 °F 21.0 °F 72% 29.98 in 5.0 mi West 23.0 mph 32.2 mph 0.00 in Snow Light Snow
3:58 PM 28.9 °F 15.1 °F 21.9 °F 75% 29.96 in 2.5 mi West 23.0 mph 32.2 mph 0.00 in Snow Light Snow
4:02 PM 28.9 °F 16.1 °F 21.9 °F 75% 29.96 in 3.0 mi WNW 19.6 mph 32.2 mph 0.00 in Snow Light Snow
4:13 PM 30.0 °F 18.7 °F 21.0 °F 69% 29.95 in 9.0 mi WNW 16.1 mph 24.2 mph 0.00 in   Mostly Cloudy
4:53 PM 30.9 °F 18.4 °F 15.1 °F 52% 29.97 in 9.0 mi West 20.7 mph 34.5 mph 0.00 in   Overcast
5:42 PM 28.9 °F 14.8 °F 21.0 °F 72% 29.97 in 1.5 mi WNW 24.2 mph 32.2 mph 0.00 in Snow Light Snow
5:50 PM 26.6 °F 14.7 °F 23.0 °F 86% 29.97 in 0.8 mi West 15.0 mph 31.1 mph 0.00 in Snow Light Snow
5:53 PM 28.0 °F 17.0 °F 23.0 °F 81% 29.99 in 1.2 mi West 13.8 mph - 0.00 in Snow Light Snow
6:01 PM 28.9 °F 17.7 °F 21.0 °F 72% 29.97 in 10.0 mi West 15.0 mph - 0.00 in   Overcast
6:26 PM 28.0 °F 17.0 °F 25.0 °F 88% 29.98 in 10.0 mi WSW 13.8 mph - 0.00 in   Overcast
6:41 PM 28.0 °F 17.5 °F 25.0 °F 88% 29.99 in 10.0 mi West 12.7 mph 24.2 mph 0.00 in   Mostly Cloudy
6:53 PM 28.0 °F 18.6 °F 24.1 °F 85% 30.01 in 10.0 mi West 10.4 mph 21.9 mph 0.00 in   Overcast
7:02 PM 28.0 °F 20.0 °F 25.0 °F 88% 29.99 in 1.8 mi West 8.1 mph - N/A   Mostly Cloudy
7:15 PM 28.0 °F 18.6 °F 25.0 °F 88% 29.99 in 3.0 mi West 10.4 mph 21.9 mph N/A   Overcast
7:19 PM 28.0 °F 17.0 °F 25.0 °F 88% 29.99 in 9.0 mi WSW 13.8 mph - N/A   Overcast
7:32 PM 28.0 °F 14.6 °F 25.0 °F 88% 30.00 in 2.0 mi West 20.7 mph 26.5 mph N/A   Overcast
7:35 PM 28.0 °F 14.9 °F 25.0 °F 88% 30.00 in 0.8 mi West 19.6 mph 28.8 mph N/A   Overcast
7:48 PM 28.4 °F 18.0 °F 26.6 °F 93% 30.00 in 1.0 mi West 12.7 mph - N/A   Overcast
7:53 PM 28.0 °F 17.5 °F 26.1 °F 92% 30.02 in 1.8 mi West 12.7 mph - N/A   Overcast
7:56 PM 28.0 °F 17.0 °F 26.1 °F 92% 30.00 in 3.0 mi West 13.8 mph - N/A   Overcast
8:05 PM 28.0 °F 15.3 °F 25.0 °F 88% 30.01 in 1.8 mi WNW 18.4 mph 25.3 mph N/A   Overcast
8:09 PM 27.0 °F 13.5 °F 25.0 °F 92% 30.01 in 0.8 mi West 19.6 mph 32.2 mph N/A   Overcast
8:28 PM 27.0 °F 13.5 °F 24.1 °F 89% 30.01 in 3.0 mi West 19.6 mph 31.1 mph N/A   Overcast
8:37 PM 27.0 °F 14.7 °F 23.0 °F 85% 30.01 in 10.0 mi West 16.1 mph - N/A   Overcast
8:53 PM 28.0 °F 17.0 °F 23.0 °F 81% 30.04 in 10.0 mi West 13.8 mph - N/A   Overcast
9:01 PM 28.0 °F 16.1 °F 23.0 °F 81% 30.03 in 1.5 mi West 16.1 mph - N/A   Haze
9:03 PM 27.0 °F 14.3 °F 23.0 °F 85% 30.03 in 0.8 mi West 17.3 mph 23.0 mph N/A   Overcast
9:11 PM 27.0 °F 13.5 °F 25.0 °F 92% 30.02 in 0.5 mi West 19.6 mph - N/A Fog Light Freezing Fog
9:17 PM 27.0 °F 14.7 °F 25.0 °F 92% 30.03 in 1.0 mi WNW 16.1 mph 24.2 mph N/A   Overcast
9:20 PM 27.0 °F 15.6 °F 25.0 °F 92% 30.03 in 3.0 mi West 13.8 mph 24.2 mph N/A   Overcast
9:32 PM 27.0 °F 16.7 °F 24.1 °F 89% 30.03 in 2.5 mi West 11.5 mph - N/A   Overcast
9:40 PM 27.0 °F 16.7 °F 24.1 °F 89% 30.04 in 6.0 mi West 11.5 mph - N/A   Overcast
9:45 PM 27.0 °F 15.2 °F 24.1 °F 89% 30.04 in 1.8 mi WNW 15.0 mph 20.7 mph N/A   Overcast
9:53 PM 27.0 °F 14.7 °F 25.0 °F 92% 30.06 in 0.5 mi West 16.1 mph - N/A Fog Light Freezing Fog
10:00 PM 26.1 °F 14.5 °F 25.0 °F 96% 30.03 in 1.0 mi WNW 13.8 mph - N/A   Overcast
10:05 PM 26.1 °F 13.6 °F 24.1 °F 92% 30.04 in 4.0 mi West 16.1 mph - N/A   Mostly Cloudy
10:29 PM 28.0 °F 16.1 °F 19.9 °F 72% 30.03 in 10.0 mi West 16.1 mph - N/A   Overcast
10:53 PM 27.0 °F 15.2 °F 21.0 °F 78% 30.05 in 8.0 mi WNW 15.0 mph 24.2 mph N/A   Mostly Cloudy
11:37 PM 26.1 °F 12.3 °F 21.9 °F 84% 30.04 in 1.5 mi West 19.6 mph 26.5 mph N/A   Overcast
11:41 PM 26.1 °F 13.6 °F 23.0 °F 88% 30.03 in 1.0 mi West 16.1 mph 26.5 mph N/A   Overcast
11:49 PM 24.8 °F 11.5 °F 21.2 °F 86% 30.03 in 3.0 mi WNW 17.3 mph 24.2 mph N/A   Mostly Cloudy
11:53 PM 26.1 °F 14.5 °F 21.0 °F 81% 30.05 in 9.0 mi WNW 13.8 mph 24.2 mph N/A   Mostly Cloudy